NOAA 6

Satellite information

Favourite Embed

Satellite Type and Status

PAYLOADIN ORBIT

Key statistics

Satellite NOAA 6 at a glance.

Uptime

16751

Days in orbit

Revolutions

≈ 14.4

Per day

Orbit

SSO

Sun Synchronous Orbit

Inclination

98.6

Latest

Satellite identification and parameters

Extended collection of information and parameters for NOAA 6.

Object identification

Identified? True

Debris? False

Object name: NOAA 6

International designator: 1979-057A

Object number (NORAD): 11416

Object ID (CCSDS): 11416

Country: UNITED STATES OF AMERICA (US)

Current information (Y/N): Y

RCS size: LARGE

Orbital parameters

Period: 100.338 minutes

Inclination: 98.6019 deg

SMA: 7152.705 km

Apoapsis: 782.075 km

Periapsis: 767.065 km

RAAN: 152.0523 deg

Eccentricy: 0.0010493

Argument of periapsis: 33.2704 deg

Mean anomaly: 326.9139 deg

Mean motion: 14.35149984 rev/day

Mean motion (dot): 0.00000516 rev/day2

B* drag term: 0.00019612 1/REarth

Two-line elements (TLE)

Creation date: May 6, 2025, 3:54 a.m.

Reference frame: TEME

Reference center: EARTH

Epoch: May 5, 2025, 11:47 a.m. UTC

TLE line 0: 0 NOAA 6

TLE line 1: 1 11416U 79057A 25125.49159084 .00000516 00000-0 19612-3 0 9990

TLE line 2: 2 11416 98.6019 152.0523 0010493 33.2704 326.9139 14.35149984392478

Live tracking on map

Real-time ground track for satellite NOAA 6.

In-orbit conjunctions

A list of the most updated potential collisions computed for object NOAA 6.

Target Orbit TCA Probability of collision Miss distance Type
CZ-6A DEB LEO 2025-03-30 21:20:22 0.002733794 433.0 (m) DEBRIS
CZ-6A DEB SSO 2025-02-18 20:37:58 0.0005758899 428.0 (m) DEBRIS
FREGAT DEB MEO 2025-02-17 14:42:50 0.0002363713 748.0 (m) DEBRIS
COSMOS 2251 DEB LEO 2024-12-13 06:08:56 0.0001251353 686.0 (m) DEBRIS
SL-8 R/B LEO 2024-10-24 07:08:36 0.0007947412 359.0 (m) ROCKET BODY

Associated space launch

Third generation LEO meteorological satellite

NOAA 6 was lifted into orbit during the mission ‘Atlas F | NOAA 6’, on board a Atlas F space rocket.

The launch took place on June 27, 1979, 3:51 p.m. from Space Launch Complex 3W.

For more information about the launch, click the button.

Launch to space Atlas F | NOAA 6
Atlas F | NOAA 6

Agency: N/A

Status: Launch Successful

Launch date: June 27, 1979, 3:51 p.m. UTC

Rocket: Atlas F

Launch pad: Space Launch Complex 3W

Location: Vandenberg SFB, CA, USA

...

Latest news about this satellite

There are no fresh news available about this satellite. Check back as we update our databases every day.


Newsletter sign-up

Weekly statistics, charts and insights to help you stay on top of the space industry.